Regional Weather Roundup
Issued by NWS

Home | Current Version | Previous Version | Graphics & Text | Print | Product List | Glossary On
Versions: 1 2 3 4 5 6 7 8 9 10 11 12 13 14 15 16 17 18 19 20 21 22 23 24 25 26 27 28 29 30 31 32 33 34 35 36 37 38 39 40 41 42 43 44 45 46 47 48 49 50
927
ASUS43 KBIS 100410
RWRND

NORTH DAKOTA REGIONAL WEATHER ROUNDUP
NATIONAL WEATHER SERVICE BISMARCK ND
1000 PM CST FRI DEC 09 2016

NOTE: "FAIR" INDICATES FEW OR NO CLOUDS BELOW 12,000 FEET WITH NO
SIGNIFICANT WEATHER AND/OR OBSTRUCTIONS TO VISIBILITY.


NDZ001>003-009>011-017-100500-
NORTHWEST NORTH DAKOTA

CITY           SKY/WX    TMP DP  RH WIND       PRES   REMARKS
WILLISTON      CLOUDY   -14 -20  74 NE3       30.46F
MINOT          CLOUDY   -12 -18  74 W6        30.48F WCI -26
MINOT AFB      CLOUDY   -20 -26  74 NW7       30.48F WCI -37
$$

NDZ018>021-031>035-040>046-100500-
SOUTHWEST NORTH DAKOTA

CITY           SKY/WX    TMP DP  RH WIND       PRES   REMARKS
BISMARCK       CLOUDY   -15 -19  82 CALM      30.52S
DICKINSON      CLOUDY   -17 -22  78 S5        30.35F WCI -30
GARRISON         N/A    -18 -23  77 CALM      30.47S
HETTINGER ARPT CLOUDY   -11 -15  82 S3        30.38S
$$

NDZ004>008-012>016-024-026-027-054-100500-
NORTHEAST NORTH DAKOTA

CITY           SKY/WX    TMP DP  RH WIND       PRES   REMARKS
GRAND FORKS    CLOUDY    -4 -10  75 NW7       30.56S WCI -18
GRND FRKS AFB  CLOUDY    -4 -11  73 NW7       30.56R WCI -18
$$

NDZ022-023-025-028>030-036>039-047>053-100500-
SOUTHEAST NORTH DAKOTA

CITY           SKY/WX    TMP DP  RH WIND       PRES   REMARKS
FARGO          CLOUDY    -4 -12  68 NW10      30.57R WCI -21
JAMESTOWN      CLOUDY   -13 -17  82 NW9       30.51S WCI -31
$$





USA.gov is the U.S. government's official web portal to all federal, state and local government web resources and services.